www.pogodaiklimat.ru

Погода и климат >> Архив погоды >> Таиланд >> Кхонкэн


ПОГОДА в Кхонкэне

  • Прогноз погоды в Кхонкэне
  • Монитор погоды в Кхонкэне

АРХИВ ПОГОДЫ в Кхонкэне

Время (UTC), дата Ветер
(напр.,м/с)
 
Видим.   Явления Облачность Т
(С)
Тd
(С)
f
(%)
Тe
(С)
Тes
(С)
Комфортность P
(гПа)
Po
(гПа)
Тmin
(С)
Tmax
(С)
R
(мм)
R24
(мм)
S
(см)
18 11.09 З 2 7000 м дымка {дождь} 10/5 300 м
[Sc Ac As]
+25.4 +24.8 96 +36 +36 очень
душно
1005.9 984.2 0.1
21 11.09 С 3 5000 м дымка 10/5 300 м
[Sc Ac As]
+25.5 +24.8 96 +36 +36 очень
душно
1011.6 989.7
00 12.09 штиль 0 8000 м дымка 8/4 600 м
[Sc Ac As Cs]
+25.0 +24.3 96 +35 +35 очень
душно
1011.5 989.6 +24.5
03 12.09 З 3 8000 м дымка 9/4 600 м
[Cu Sc Ac und Cs]
+28.8 +24.2 76 +40 +45 очень
душно
1013.0 991.3
06 12.09 СЗ 8 10 км 8/4 600 м
[Cu med, cong Ac und Cs]
+32.2 +22.4 56 +41 +43 опасность
перегрева
1009.7 988.3
09 12.09 СЗ 6 10 км 4/0
[Cs]
+32.8 +23.3 57 +43 +45 опасность
перегрева
1007.4 986.1
12 12.09 штиль 0 10 км 4/3 600 м
[Cu hum Ac und Cs]
+29.4 +24.5 75 +42 +42 опасность
перегрева
1008.0 986.5 +33.0
15 12.09 штиль 0 10 км 4/0
[Ac und Cs]
+27.4 +24.7 85 +39 +39 очень
душно
1009.8 988.1
18 12.09 ЮЗ 2 10 км зарница 8/3 600 м
[Cb cap Ac und Cs]
+26.4 +25.1 93 +38 +38 очень
душно
1008.8 987.1
21 12.09 СВ 2 8000 м дымка 10/4 300 м
[Sc Ac As Cs]
+25.9 +25.2 96 +37 +37 очень
душно
1005.4 983.7
00 13.09 СЗ 2 7000 м слаб. дождь 10/6 600 м
[Sc Ac As Cs]
+24.8 +23.9 95 +34 +34 очень
душно
1009.7 987.8 +24.5 0.2
03 13.09 Ю 2 12 км 8/3 600 м
[Cu med, cong Ac trans Cs]
+28.6 +24.9 80 +41 +48 опасность
перегрева
1009.9 988.3
06 13.09 СЗ 4 12 км 9/8 600 м
[Cu med, cong Ac trans Cs]
+32.1 +25.6 69 +47 +49 опасность
перегрева
1006.7 985.4
09 13.09 С 3 12 км 8/8 600 м
[Cu med, cong Ac trans Cs]
+33.7 +24.2 58 +46 +47 опасность
перегрева
1004.0 982.9
12 13.09 ЮЗ 3 10 км {дождь} 9/4 600 м
[Cb cap Ac As Cs]
+27.3 +25.7 91 +40 +40 очень
душно
1006.7 985.1 +34.0 8
15 13.09 штиль 0 10 км 8/4 600 м
[Cu med, cong Ac trans Cs]
+26.0 +25.1 95 +37 +37 очень
душно
1005.5 983.8
18 13.09 штиль 0 10 км 6/3 600 м
[Cu hum Ac trans Cs]
+25.6 +25.2 98 +37 +37 очень
душно
1007.5 985.8
21 13.09 В 1 10 км 9/4 300 м
[Cu Sc Ac As Cs]
+25.0 +24.6 98 +35 +35 очень
душно
1007.3 985.5
00 14.09 В 1 10 км 8/4 600 м
[Cu med, cong Ac trans Cs]
+25.6 +25.0 96 +36 +37 очень
душно
1008.3 986.5 +24.8
03 14.09 В 6 10 км 8/5 600 м
[Cu med, cong Ac cuf Cs]
+30.3 +23.7 68 +41 +44 опасность
перегрева
1009.2 987.7
06 14.09 В 4 10 км 9/5 600 м
[Cu Sc Ac As Cs]
+32.3 +24.5 64 +45 +49 опасность
перегрева
1007.2 985.9
09 14.09 В 4 10 км 8/3 600 м
[Cu Sc Ac cuf Cs]
+32.0 +24.1 63 +44 +46 опасность
перегрева
1004.5 983.3
12 14.09 штиль 0 10 км 9/4 600 м
[Cu Sc Ac As Cs]
+29.7 +24.7 75 +42 +42 опасность
перегрева
1005.7 984.2 +33.3
15 14.09 С 3 10 км 8/3 600 м
[Cu Sc Ac cuf Cs]
+28.0 +25.3 85 +41 +41 опасность
перегрева
1008.3 986.6
18 14.09 штиль 0 10 км 9/4 600 м
[Cu Sc Ac As Cs]
+26.8 +25.1 90 +39 +39 очень
душно
1007.7 986.0
21 14.09 СВ 1 9000 м дымка 8/3 600 м
[Cu Sc Ac As Cs]
+26.6 +25.0 91 +38 +38 очень
душно
1007.1 985.4
00 15.09 В 2 8000 м дымка 8/3 600 м
[Cu Sc Ac cuf Cs]
+26.0 +24.7 93 +37 +37 очень
душно
1008.5 986.8 +25.6
03 15.09 СВ 5 10 км 4/3 600 м
[Cu hum Cs]
+30.5 +23.7 67 +42 +47 опасность
перегрева
1009.0 987.5
06 15.09 В 5 10 км 8/4 600 м
[Cu hum Cs]
+32.8 +23.3 57 +43 +49 опасность
перегрева
1007.0 985.8
09 15.09 СВ 4 10 км 6/4 600 м
[Cu hum Cs]
+33.4 +22.7 54 +43 +45 опасность
перегрева
1005.0 983.8
12 15.09 штиль 0 10 км 6/1 600 м
[Cu hum Cs]
+29.5 +23.7 71 +40 +40 очень
душно
1005.7 984.2 +33.6
15 15.09 штиль 0 10 км 4/0
[Cs]
+27.2 +24.0 83 +38 +38 очень
душно
1007.9 986.2
18 15.09 штиль 0 8000 м 3/0
[Cs]
+26.5 +24.6 89 +37 +37 очень
душно
1007.6 985.9
21 15.09 штиль 0 8000 м дымка 3/0
[Cs]
+25.1 +23.9 93 +34 +34 очень
душно
1006.8 985.0
00 16.09 штиль 0 6000 м дымка 4/3 600 м
[Cu hum Ci fib]
+25.0 +23.5 91 +34 +35 очень
душно
1008.1 986.3 +24.5
03 16.09 В 4 10 км 6/4 600 м
[Cu hum Cs]
+30.7 +23.9 67 +42 +48 опасность
перегрева
1008.6 987.2
06 16.09 СВ 3 10 км 8/8 600 м
[Cu med, cong Cs]
+33.5 +23.8 57 +45 +48 опасность
перегрева
1005.8 984.6
09 16.09 СВ 3 12 км 6/4 600 м
[Cu med, cong Cs]
+34.2 +22.6 51 +44 +46 опасность
перегрева
1003.6 982.5
12 16.09 С 3 10 км 6/4 600 м
[Cu med, cong Cs]
+30.6 +24.3 69 +43 +43 опасность
перегрева
1004.5 983.1 +34.7
15 16.09 штиль 0 10 км 3/0
[Cs]
+28.2 +25.1 83 +41 +41 опасность
перегрева
1007.2 985.6
18 16.09 ЮЗ 2 8000 м 3/0
[Cs]
+27.2 +25.1 88 +39 +39 очень
душно
1007.1 985.5
21 16.09 СЗ 1 8000 м дымка 4/0
[Ac trans Cs]
+26.2 +24.9 93 +37 +37 очень
душно
1006.9 985.2
00 17.09 ЮВ 1 7000 м дымка 3/0
[Ac trans Cs]
+26.2 +25.5 96 +38 +39 очень
душно
1008.3 986.5 +25.4
03 17.09 В 8 10 км 4/3 600 м
[Cu hum Cs]
+32.0 +23.0 59 +42 +44 опасность
перегрева
1009.1 987.8
06 17.09 В 6 <100 м 4/4 600 м
[Cu hum Cs]
+33.8 +23.1 54 +44 +49 опасность
перегрева
1005.5 984.3
09 17.09 ЮВ 6 10 км гроза без осадков 10/6 600 м
[Cb cap Ac As Cs]
+30.6 +24.0 68 +42 +43 опасность
перегрева
1005.3 984.0
12 17.09 З 1 10 км {гроза} 10/4 600 м
[Sc Ac As Cs]
+33.3 +23.2 56 +44 +44 опасность
перегрева
1006.2 985.0 +34.8 0.0
15 17.09 штиль 0 8000 м дымка 8/3 600 м
[Sc Cs]
+27.8 +25.5 87 +41 +41 опасность
перегрева
1008.5 986.9
18 17.09 штиль 0 8000 м дымка 6/0
[Cs]
+26.8 +25.7 94 +40 +40 очень
душно
1008.2 986.5
21 17.09 штиль 0 8000 м дымка 4/0
[Ac trans Cs]
+25.1 +24.4 96 +35 +35 очень
душно
1008.1 986.3
00 18.09 штиль 0 7000 м дымка 4/3 600 м
[Cu hum Cs]
+26.1 +24.5 91 +37 +38 очень
душно
1010.6 988.8 +25.0
03 18.09 В 4 9000 м мгла 6/3 600 м
[Cu hum Cs]
+32.3 +23.0 58 +42 +49 опасность
перегрева
1010.5 989.1
06 18.09 С 5 10 км 8/4 600 м
[Cu Sc Ac As Cs]
+33.9 +23.1 53 +44 +48 опасность
перегрева
1007.7 986.5
09 18.09 СВ 4 10 км {дождь} 8/3 600 м
[Cu Sc Ac cuf Cs]
+33.0 +23.7 58 +44 +46 опасность
перегрева
1006.2 984.9 0.0
12 18.09 С 2 10 км {дождь} 9/4 600 м
[Cu Sc Ac As Cs]
+28.9 +24.1 75 +40 +40 очень
душно
1008.0 986.5 +34.6 0.0

 

Местоположение метеостанции Кхонкэн (Таиланд): широта 16.43 долгота 102.83 высота над уровнем моря 166 м.

В архиве по умолчанию представлена погода в Кхонкэне за последнюю неделю. Архивные данные за месяц целиком и за предыдущие месяцы, начиная с января 2011 года, Вы можете получить, выбрав интересующий диапазон дат из раскрывающегося списка и нажав кнопку "Ввод!".


*Определитесь, кто Вы:
робот инопланетянин человек

Внимание! Время в таблицах - всемирное. Для получения местного времени необходимо прибавить поправку, которая равна 7 ч.

Смотрите также архив погоды в соседних городах и на ближайших метеорологических станциях:

Погода в Тха Пхра Агромете (Таиланд) (11 км)
Погода в Косумпхисаи (Таиланд) (33 км)
Погода в Камаласаи (Таиланд) (81 км)
Погода в Рой Эт Агромете (Таиланд) (93 км)
Погода в Нонгбуалампху (Таиланд) (99 км)
Погода в Рой Эт (Таиланд) (100 км)
Погода в Удонтхани (Таиланд) (106 км)
Погода в Чайяпхуме (Таиланд) (111 км)
Погода в Бури-Рам (Таиланд) (141 км)
Погода в Сакон Нахон Агромете (Таиланд) (151 км)

Пояснения к столбцам:

Ветер - указаны скорость ветра в м/с - средняя за 10 мин, порывы в срок и между сроками (в фигурных скобках) и направление, откуда дует ветер: С - северный, СВ - северо-восточный, В - восточный, ЮВ - юго-восточный, Ю - южный, ЮЗ - юго-западный, З - западный, СЗ - северо-западный.
Видимость - горизонтальная дальность видимости в метрах или километрах. При видимости от 1 до 10 км при отсутствии осадков обычно наблюдается дымка, при ухудшении видимости до 1 км и менее - туман. В сухую погоду видимость может ухудшаться дымом, пылью или мглою.
Явления - указаны атмосферные явления, наблюдавшиеся в срок или в последний час перед сроком; фигурными скобками обозначены явления, наблюдавшиеся между сроками (за 1-3 часа до срока); квадратными скобками обозначены град или гололедные отложения с указанием их диаметра в мм.
Облачность - указаны через наклонную черту общая и нижняя облачность в баллах и высота нижней границы облаков в метрах; квадратными скобками обозначены формы облаков: Ci - перистые, Cs - перисто-слоистые, Cc - перисто-кучевые, Ac - высококучевые, As - высокослоистые, Sc - слоисто-кучевые, Ns - слоисто-дождевые, Cu - кучевые, Cb - кучево-дождевые. Подробнее классификацию облаков см. в Атласе облаков (PDF).
T - Температура воздуха - температура, измеренная на высоте 2 м над землей.
Td - Температура точки росы - температура, при понижении до которой содержащийся в воздухе водяной пар достигнет насыщения.
f - Относительная влажность воздуха - влажноcть воздуха, измеренная на высоте 2 м над землей.
Te - Эффективная температура - температура, которую ощущает одетый по сезону человек в тени. Характеристика душности погоды. При расчете учитывается влияние влажности воздуха и скорости ветра на теплоощущения человека.
Tes - Эффективная температура на солнце - температура, которую ощущает человек, с поправкой на солнечный нагрев. Характеристика знойности погоды. Зависит от высоты солнца над горизонтом, облачности и скорости ветра. Ночью, в пасмурную погоду, а также при ветре 12 м/с и более поправка равна нулю.
P - Атмосферное давление - приведенное к уровню моря атмосферное давление.
Po - Атмосферное давление - измеренное на уровне метеостанции атмосферное давление.
Tmin - Минимальная температура - минимум температуры воздуха на высоте 2 м над землей.
Tmax - Максимальная температура - максимум температуры воздуха на высоте 2 м над землей.
R - Количество осадков - Количество выпавших осадков за период времени, мм. При наведении курсора мыши на число - период времени, за который выпало указанное количество осадков.
R24 - Количество осадков - Количество выпавших осадков за 24 часа, мм.
S - Снежный покров - Высота снежного покрова, см. При наведении курсора мыши на число - состояние снежного покрова и степень покрытия местности в баллах.